GW2525 Weather Reports


time (UTC)temp
C
wind
direction
speed
KPH
gust
KPH
rain 1hr
cm
rain 24hr
cm
rain mn
cm
humidity
%
barometer
mb
20260506154714 15 131 17.7 29.0 0.00 0.10 0.03 78 1009.5
20260506154003 15 125 19.3 29.0 0.00 0.10 0.03 78 1009.5
20260506153503 15 124 17.7 29.0 0.00 0.10 0.03 79 1009.4
20260506153004 15 113 17.7 30.6 0.00 0.10 0.03 78 1009.3
20260506152504 15 111 19.3 30.6 0.00 0.10 0.03 77 1009.3
20260506152003 15 125 20.9 30.6 0.00 0.10 0.03 77 1009.3
20260506151503 15 131 19.3 30.6 0.00 0.10 0.03 77 1009.4
20260506151003 15 127 17.7 30.6 0.00 0.10 0.03 76 1009.3
20260506150504 15 121 17.7 29.0 0.00 0.10 0.03 76 1009.2
20260506150214 15 119 17.7 29.0 0.00 0.10 0.03 76 1009.1
20260506145713 15 125 16.1 24.1 0.00 0.10 0.03 75 1009.3
20260506145003 15 125 16.1 25.7 0.00 0.10 0.03 76 1009.2
20260506144503 15 117 16.1 25.7 0.00 0.10 0.03 75 1009.2
20260506144003 15 123 17.7 25.7 0.00 0.10 0.03 76 1009.2
20260506143503 15 124 17.7 25.7 0.00 0.10 0.03 75 1009.2
20260506143004 15 111 16.1 27.4 0.00 0.10 0.03 74 1009.2
20260506142503 16 119 17.7 27.4 0.00 0.10 0.03 73 1009.1
20260506142003 15 127 17.7 29.0 0.00 0.10 0.03 74 1009.2
20260506141503 16 122 17.7 32.2 0.00 0.10 0.03 74 1009.2
20260506141003 15 127 17.7 32.2 0.00 0.10 0.03 74 1009.3
20260506140503 15 125 16.1 25.7 0.00 0.10 0.03 74 1009.5
20260506140005 15 116 16.1 30.6 0.00 0.10 0.03 76 1009.6
20260506135503 15 106 17.7 30.6 0.00 0.13 0.03 76 1009.6
20260506135003 15 110 14.5 25.7 0.00 0.13 0.03 76 1009.7
20260506134503 16 124 12.9 20.9 0.00 0.13 0.03 75 1009.7
20260506134003 16 112 12.9 20.9 0.00 0.13 0.03 74 1009.8
20260506133503 16 113 14.5 24.1 0.00 0.13 0.03 75 1009.8
20260506133004 15 120 12.9 24.1 0.00 0.13 0.03 75 1009.8
20260506132503 16 110 11.3 20.9 0.00 0.13 0.03 75 1009.9
20260506132003 16 105 12.9 22.5 0.00 0.13 0.03 74 1009.8
20260506131503 15 116 12.9 22.5 0.00 0.18 0.03 74 1009.9
20260506131003 15 132 11.3 22.5 0.00 0.23 0.03 75 1010.0
20260506130503 15 133 11.3 22.5 0.00 0.23 0.03 75 1010.2
20260506130005 15 126 12.9 22.5 0.00 0.28 0.03 75 1010.2
20260506125503 15 114 12.9 22.5 0.00 0.46 0.03 76 1010.2
20260506125004 15 109 14.5 25.7 0.00 0.76 0.03 77 1010.2
20260506124714 15 115 12.9 25.7 0.00 0.84 0.03 78 1010.2
20260506124003 15 127 14.5 24.1 0.00 0.84 0.03 78 1010.3
20260506123504 15 130 14.5 24.1 0.00 0.84 0.03 76 1010.3
20260506123004 15 116 12.9 24.1 0.00 0.84 0.03 76 1010.4
20260506122503 15 118 12.9 24.1 0.00 0.84 0.03 76 1010.3
20260506122004 15 122 14.5 22.5 0.00 0.84 0.03 78 1010.3
20260506121503 15 116 12.9 19.3 0.00 0.84 0.03 78 1010.4
20260506121003 14 115 12.9 19.3 0.00 0.84 0.03 77 1010.4
20260506120504 14 125 12.9 24.1 0.00 0.84 0.03 77 1010.4
20260506120005 14 136 12.9 24.1 0.00 0.84 0.03 78 1010.4
20260506115503 14 129 14.5 24.1 0.00 0.84 0.03 78 1010.4
20260506115003 14 127 16.1 24.1 0.00 0.84 0.03 78 1010.4
20260506114503 14 127 16.1 25.7 0.00 0.84 0.03 77 1010.4
20260506114004 14 119 17.7 32.2 0.00 0.84 0.03 77 1010.4
20260506113503 15 110 16.1 32.2 0.00 0.84 0.03 76 1010.4
20260506113004 15 111 16.1 30.6 0.00 0.84 0.03 76 1010.5
20260506112503 15 119 16.1 25.7 0.00 0.84 0.03 76 1010.6
20260506112003 15 122 17.7 27.4 0.00 0.84 0.03 74 1010.6
20260506111503 15 123 17.7 27.4 0.00 0.84 0.03 74 1010.5
20260506111003 15 119 14.5 27.4 0.00 0.84 0.03 74 1010.6
20260506110504 16 122 9.7 22.5 0.00 0.84 0.03 69 1010.6
20260506110004 16 153 6.4 16.1 0.00 0.84 0.03 59 1010.7
20260506105714 15 153 4.8 16.1 0.00 0.84 0.03 59 1010.7
20260506105004 15 269 3.2 12.9 0.00 0.84 0.03 58 1010.7
20260506104503 15 296 3.2 12.9 0.00 0.84 0.03 61 1010.8
20260506104003 15 327 1.6 8.0 0.00 0.84 0.03 65 1010.8
20260506103503 15 14 1.6 8.0 0.00 0.84 0.03 64 1010.7
20260506103214 15 192 0.0 6.4 0.00 0.84 0.03 67 1010.8
20260506102714 15 89 0.0 4.8 0.00 0.84 0.03 66 1010.8
20260506102003 14 135 3.2 12.9 0.00 0.84 0.03 67 1010.9
20260506101503 14 138 6.4 17.7 0.00 0.84 0.03 68 1010.9
20260506101004 14 136 4.8 17.7 0.00 0.84 0.03 72 1011.0
20260506100504 14 114 0.0 9.7 0.00 0.84 0.03 70 1011.0
20260506100005 14 101 0.0 4.8 0.00 0.84 0.03 68 1011.0
20260506095503 14 131 0.0 6.4 0.00 0.84 0.03 67 1011.0
20260506095003 14 123 1.6 8.0 0.00 0.84 0.03 65 1011.0
20260506094503 14 102 3.2 12.9 0.00 0.84 0.03 65 1011.0
20260506094003 14 101 3.2 12.9 0.00 0.84 0.03 69 1011.0
20260506093503 14 345 1.6 8.0 0.00 0.84 0.03 65 1011.0
20260506093004 14 293 3.2 12.9 0.00 0.84 0.03 66 1011.0
20260506092503 15 263 1.6 12.9 0.00 0.84 0.03 69 1011.0
20260506092003 14 116 0.0 6.4 0.00 0.84 0.03 71 1011.0
20260506091503 14 74 1.6 8.0 0.00 0.84 0.03 71 1011.0
20260506091003 13 90 3.2 11.3 0.00 0.84 0.03 72 1011.1
20260506090503 13 104 4.8 11.3 0.00 0.84 0.03 73 1011.0
20260506090004 13 124 6.4 16.1 0.00 0.84 0.03 74 1011.0
20260506085504 13 122 8.0 16.1 0.00 0.84 0.03 72 1011.0
20260506085214 13 123 4.8 12.9 0.00 0.84 0.03 74 1010.9
20260506084503 12 143 4.8 14.5 0.00 0.84 0.03 75 1010.9
20260506084004 13 140 8.0 17.7 0.00 0.84 0.03 75 1010.9
20260506083503 12 136 4.8 17.7 0.00 0.84 0.03 75 1010.9
20260506083004 12 241 4.8 16.1 0.00 0.84 0.03 74 1010.9
20260506082503 12 235 6.4 16.1 0.00 0.84 0.03 74 1010.7
20260506082214 12 222 8.0 16.1 0.00 0.84 0.03 73 1010.8
20260506081713 12 182 6.4 16.1 0.00 0.84 0.03 73 1010.7
20260506081003 12 163 1.6 12.9 0.00 0.84 0.03 77 1010.7
20260506080503 12 163 0.0 9.7 0.00 0.84 0.03 73 1010.7
20260506073503 11 247 8.0 19.3 0.00 0.84 0.03 76 1010.6
20260506073004 11 270 11.3 22.5 0.00 0.84 0.03 77 1010.7
20260506072503 11 283 12.9 22.5 0.00 0.84 0.03 77 1010.6
20260506072004 11 287 12.9 30.6 0.00 0.84 0.03 79 1010.6
20260506071504 11 292 14.5 30.6 0.00 0.84 0.03 78 1010.5
20260506071213 11 291 14.5 30.6 0.00 0.84 0.03 78 1010.4
20260506070714 11 286 16.1 29.0 0.00 0.84 0.03 78 1010.4
20260506062003 10 265 14.5 27.4 0.00 0.84 0.03 81 1010.5
20260506061714 10 273 14.5 27.4 0.00 0.84 0.03 82 1010.6
20260506061003 10 287 14.5 25.7 0.00 0.84 0.03 81 1010.6
20260506060503 10 283 11.3 22.5 0.00 0.84 0.03 82 1010.5
20260506051004 9 280 6.4 22.5 0.00 0.84 0.03 90 1009.7
20260506050713 8 273 6.4 19.3 0.00 0.84 0.03 92 1009.8
20260506045003 9 272 4.8 14.5 0.00 0.84 0.03 87 1009.6
20260506044504 10 267 9.7 16.1 0.00 0.84 0.03 87 1009.6
20260506044004 10 264 12.9 20.9 0.00 0.84 0.03 86 1009.6
20260506043503 10 253 12.9 20.9 0.00 0.84 0.03 86 1009.5
20260506043004 10 239 14.5 20.9 0.00 0.84 0.03 85 1009.6
20260506042713 10 243 14.5 20.9 0.00 0.84 0.03 85 1009.6
20260506042003 10 257 16.1 25.7 0.00 0.84 0.03 85 1009.6
20260506041503 10 260 12.9 25.7 0.00 0.84 0.03 86 1009.5
20260506041004 9 266 11.3 20.9 0.00 0.84 0.03 88 1009.6
20260506040503 10 270 11.3 19.3 0.00 0.84 0.03 85 1009.4
20260506040004 10 270 9.7 24.1 0.00 0.84 0.03 87 1009.4
20260506035503 10 276 11.3 24.1 0.00 0.86 0.03 88 1009.3
20260506035004 10 273 8.0 22.5 0.00 0.86 0.03 88 1009.3
20260506034503 9 273 4.8 16.1 0.00 0.86 0.03 90 1009.3
20260506034003 10 268 3.2 16.1 0.00 0.86 0.03 90 1009.4
20260506033503 9 255 4.8 14.5 0.00 0.86 0.03 90 1009.4
20260506033005 10 278 11.3 22.5 0.00 0.86 0.03 88 1009.3
20260506032503 10 287 14.5 27.4 0.00 0.86 0.03 88 1009.3
20260506032004 10 276 16.1 29.0 0.00 0.86 0.03 89 1009.2
20260506031503 10 274 12.9 29.0 0.00 0.86 0.03 92 1009.3
20260506031003 9 283 11.3 19.3 0.00 0.86 0.03 92 1009.3
20260506030503 8 275 8.0 16.1 0.00 0.86 0.03 96 1009.3
20260506030004 7 273 6.4 14.5 0.00 0.86 0.03 95 1009.5
20260506025503 8 285 4.8 14.5 0.00 0.86 0.03 96 1009.5
20260506025003 8 296 4.8 11.3 0.00 0.86 0.03 96 1009.4
20260506024503 8 289 4.8 14.5 0.00 0.86 0.03 98 1009.4
20260506024003 8 287 6.4 14.5 0.00 0.86 0.03 97 1009.4
20260506023713 8 290 6.4 14.5 0.00 0.86 0.03 98 1009.3
20260506023004 7 282 6.4 12.9 0.00 0.86 0.03 97 1009.2
20260506022503 7 282 6.4 12.9 0.00 0.86 0.03 98 1009.1
20260506022003 6 282 6.4 11.3 0.00 0.86 0.03 97 1009.2
20260506021504 7 283 6.4 11.3 0.00 0.86 0.03 98 1009.2
20260506021214 6 283 6.4 12.9 0.00 0.86 0.03 97 1009.1
20260506020504 6 285 6.4 12.9 0.00 0.86 0.03 97 1009.2
20260506020004 6 289 4.8 11.3 0.00 0.86 0.03 98 1009.2
20260506015503 6 293 4.8 11.3 0.00 0.86 0.03 98 1009.3
20260506015004 6 291 3.2 8.0 0.00 0.86 0.03 98 1009.4
20260506014503 6 279 1.6 4.8 0.00 0.86 0.03 97 1009.4
20260506014004 6 279 1.6 4.8 0.00 0.86 0.03 98 1009.5
20260506013503 6 279 1.6 3.2 0.00 0.86 0.03 97 1009.4
20260506013004 6 279 1.6 3.2 0.00 0.86 0.03 97 1009.4
20260506012503 6 279 1.6 3.2 0.00 0.86 0.03 97 1009.4
20260506012004 6 279 1.6 4.8 0.03 0.86 0.03 97 1009.5
20260506011503 6 284 3.2 6.4 0.03 0.86 0.03 97 1009.4
20260506011213 6 290 3.2 6.4 0.03 0.86 0.03 97 1009.4
20260506010504 6 334 1.6 4.8 0.03 0.86 0.03 97 1009.6
20260506010005 6 305 1.6 6.4 0.03 0.86 0.03 97 1009.6
20260506005503 6 279 1.6 6.4 0.03 0.86 0.03 97 1009.6
20260506005213 6 278 1.6 4.8 0.03 0.86 0.03 97 1009.5
20260506004504 6 278 0.0 3.2 0.03 0.89 0.03 97 1009.6
20260506004003 7 278 0.0 3.2 0.03 0.89 0.03 97 1009.7
20260506003503 7 278 3.2 4.8 0.03 0.89 0.03 97 1009.7
20260506003004 7 292 4.8 8.0 0.03 0.89 0.03 97 1009.6
20260506002503 7 285 4.8 11.3 0.03 0.89 0.03 97 1009.7
20260506002003 7 288 3.2 11.3 0.00 0.86 0.00 97 1009.7
20260506001504 7 302 4.8 9.7 0.00 0.86 0.00 97 1009.7
20260506001003 7 295 3.2 9.7 0.00 0.86 0.00 97 1009.8
20260506000503 7 282 3.2 6.4 0.00 0.86 0.00 97 1009.6
20260506000004 7 272 3.2 6.4 0.00 0.86 0.00 97 1009.9
20260505235503 7 284 0.0 3.2 0.00 0.86 0.00 97 1009.8
20260505235004 7 273 1.6 4.8 0.00 0.86 0.00 97 1009.8
20260505234503 7 267 1.6 4.8 0.00 0.86 0.00 97 1009.9
20260505234003 7 263 1.6 6.4 0.00 0.86 0.00 97 1009.9
20260505233714 7 268 1.6 6.4 0.00 0.86 0.00 97 1009.9
20260505233214 7 274 1.6 6.4 0.00 0.86 0.00 97 1009.9
20260505232503 8 295 1.6 4.8 0.00 0.86 0.00 97 1010.0
20260505232003 8 297 3.2 4.8 0.00 0.86 0.00 97 1010.0
20260505231504 8 300 1.6 4.8 0.00 0.86 0.00 97 1010.0
20260505231004 8 300 1.6 4.8 0.00 0.86 0.00 96 1010.1
20260505230503 8 300 0.0 1.6 0.00 0.86 0.00 97 1010.0
20260505230004 8 300 1.6 3.2 0.00 0.86 0.00 96 1010.1
20260505225504 8 300 1.6 4.8 0.00 0.86 0.00 97 1010.0
20260505225004 8 290 1.6 6.4 0.00 0.86 0.00 97 1010.1
20260505224504 8 272 1.6 6.4 0.00 0.86 0.00 96 1010.1
20260505224214 8 262 1.6 6.4 0.00 0.86 0.00 97 1010.1
20260505223504 8 259 0.0 3.2 0.00 0.86 0.00 97 1010.2
20260505223004 8 259 1.6 3.2 0.00 0.86 0.00 96 1010.2
20260505222504 8 259 1.6 3.2 0.00 0.86 0.00 96 1010.3
20260505222004 8 259 1.6 3.2 0.00 0.86 0.00 96 1010.5
20260505221503 8 259 1.6 3.2 0.00 0.86 0.00 96 1010.5
20260505221003 8 259 1.6 3.2 0.00 0.86 0.00 96 1010.4
20260505220713 8 259 0.0 3.2 0.00 0.86 0.00 96 1010.6
20260505220216 8 259 0.0 3.2 0.00 0.86 0.00 96 1010.6
20260505215503 8 259 0.0 1.6 0.00 0.86 0.86 96 1010.5
20260505215003 8 259 0.0 1.6 0.00 0.86 0.86 96 1010.7
20260505214504 8 259 0.0 1.6 0.00 0.86 0.86 96 1010.7
20260505214004 8 0 0.0 0.0 0.00 0.86 0.86 96 1010.7
20260505213503 8 259 0.0 3.2 0.00 0.86 0.86 96 1010.7
20260505213214 8 255 1.6 6.4 0.00 0.86 0.86 96 1010.7
20260505212504 8 261 3.2 6.4 0.00 0.86 0.86 95 1010.7
20260505212004 9 275 1.6 6.4 0.00 0.86 0.86 95 1010.7
20260505211713 9 287 1.6 6.4 0.00 0.86 0.86 95 1010.7
20260505211003 9 295 4.8 6.4 0.00 0.86 0.86 95 1010.6
20260505210503 9 305 3.2 6.4 0.00 0.86 0.86 94 1010.6
20260505210004 9 315 1.6 4.8 0.00 0.89 0.86 94 1010.6
20260505205503 9 315 1.6 3.2 0.00 0.94 0.86 94 1010.6
20260505205004 9 314 1.6 6.4 0.00 0.99 0.86 94 1010.5
20260505204503 9 283 3.2 9.7 0.00 1.02 0.86 94 1010.3
20260505204003 10 257 4.8 9.7 0.00 1.02 0.86 94 1010.2
20260505203503 10 250 3.2 8.0 0.00 1.02 0.86 93 1010.0
20260505203004 10 295 1.6 8.0 0.00 1.02 0.86 93 1009.9
20260505202503 10 6 1.6 6.4 0.00 1.02 0.86 93 1009.8
20260505202003 10 305 0.0 4.8 0.00 1.02 0.86 93 1009.8
20260505201503 10 297 3.2 9.7 0.00 1.02 0.86 93 1009.6
20260505201003 10 283 6.4 12.9 0.00 1.02 0.86 93 1009.2
20260505200503 10 277 6.4 12.9 0.00 1.02 0.86 93 1009.3
20260505200004 10 277 3.2 12.9 0.00 1.02 0.86 93 1009.3
20260505195503 10 0 0.0 0.0 0.00 1.02 0.86 92 1009.2
20260505195003 10 306 0.0 3.2 0.03 1.02 0.86 91 1009.4
20260505194714 10 280 0.0 4.8 0.05 1.02 0.86 91 1009.3
20260505194004 10 298 0.0 4.8 0.08 1.02 0.86 91 1009.2
20260505193714 10 52 0.0 4.8 0.08 1.02 0.86 91 1009.2
20260505193004 10 354 1.6 6.4 0.08 1.02 0.86 90 1009.3
20260505192504 10 294 1.6 6.4 0.08 1.02 0.86 91 1009.2
20260505192004 10 285 1.6 4.8 0.08 1.02 0.86 92 1009.1
20260505191714 10 277 1.6 6.4 0.08 1.02 0.86 91 1009.1
20260505191003 10 309 4.8 9.7 0.08 1.02 0.86 91 1008.8
20260505190503 10 13 4.8 9.7 0.08 1.02 0.86 89 1008.7
20260505190004 10 299 4.8 14.5 0.08 1.02 0.86 89 1008.6
20260505185503 11 260 4.8 14.5 0.08 1.02 0.86 87 1008.7
20260505185003 11 356 4.8 14.5 0.05 0.99 0.84 86 1008.5
20260505184714 11 294 4.8 14.5 0.05 0.99 0.84 84 1008.7
20260505184212 11 279 9.7 27.4 0.03 0.97 0.79 83 1008.9
20260505183503 12 266 22.5 41.8 0.00 0.94 0.79 78 1008.8
20260505183004 12 263 19.3 41.8 0.00 0.94 0.79 77 1008.7
20260505182503 13 245 12.9 32.2 0.00 0.94 0.79 74 1009.0
20260505182003 13 255 12.9 32.2 0.00 0.94 0.79 74 1009.0
20260505181503 13 278 6.4 17.7 0.00 0.94 0.79 76 1009.1
20260505181215 13 297 4.8 14.5 0.00 0.94 0.79 81 1009.0
20260505180504 13 67 1.6 6.4 0.00 0.94 0.79 91 1008.7
20260505180004 13 124 0.0 3.2 0.00 0.94 0.79 91 1008.7
20260505175503 13 124 0.0 3.2 0.00 0.94 0.79 91 1008.5
20260505175003 13 117 1.6 8.0 0.00 0.94 0.79 90 1008.4
20260505174504 13 106 4.8 11.3 0.00 0.94 0.79 90 1008.3
20260505174214 13 99 6.4 12.9 0.00 0.94 0.79 90 1008.3
20260505173503 13 97 6.4 12.9 0.00 0.94 0.79 89 1008.2
20260505173004 13 116 6.4 11.3 0.00 0.94 0.79 89 1008.2
20260505172503 14 121 6.4 11.3 0.00 0.94 0.79 88 1008.4
20260505172003 14 112 8.0 14.5 0.00 0.94 0.79 88 1008.5
20260505171503 14 125 8.0 16.1 0.00 0.94 0.79 87 1008.4
20260505171004 14 147 4.8 16.1 0.00 0.94 0.79 86 1008.4
20260505170503 14 146 4.8 9.7 0.00 0.94 0.79 87 1008.4
20260505170005 14 112 4.8 12.9 0.00 0.94 0.79 85 1008.3
20260505165503 14 103 8.0 16.1 0.00 0.94 0.79 85 1008.3
20260505165004 14 105 9.7 16.1 0.00 0.94 0.79 85 1008.3
20260505164503 14 105 8.0 12.9 0.00 0.94 0.79 85 1008.5
20260505164003 14 110 4.8 11.3 0.00 0.94 0.79 85 1008.5
20260505163503 14 116 6.4 12.9 0.00 0.94 0.79 86 1008.5
20260505163004 14 122 6.4 12.9 0.00 0.94 0.79 87 1008.6
20260505162503 14 118 6.4 12.9 0.00 0.94 0.79 86 1008.5
20260505162003 14 101 8.0 16.1 0.00 0.94 0.79 86 1008.5
20260505161504 14 103 11.3 17.7 0.00 0.94 0.79 86 1008.5
20260505161003 14 106 11.3 17.7 0.00 0.94 0.79 87 1008.6
20260505160503 14 106 9.7 16.1 0.00 0.94 0.79 87 1008.7